Location: Bieg
(49.3499°N, 10.3835°E)
Time: 21:27:37
(UTC+00:00)

YAOGAN 6 - Pass Details

Date: 23 May 2024
Orbit: 409 x 434 km, 97.2° (Epoch: 23 June)

Event Time Altitude Azimuth Distance (km) Brightness Sun altitude
Rises 02:39:27 0° 19° (NNE) 2,439 7.4 -6.6°
Reaches altitude 10° 02:41:36 10° 28° (NNE) 1,561 6.6 -6.4°
Maximum altitude 02:44:44 36° 98° (E) 707 3.8 -6.0°
Drops below altitude 10° 02:47:48 10° 167° (SSE) 1,535 4.8 -5.6°
Sets 02:49:54 0° 176° (S) 2,391 5.7 -5.4°
